This is the latest recevied weather packets stored in our database for station/object DO1MIT-10. If no packets are shown the sender has not sent any weather packets the latest 10 day(s).
| Time | Temp. | Humidity | Pressure | Rain* | Wind** | Luminosity | Snow |
|---|---|---|---|---|---|---|---|
| 1787665084 | 23.33° C | 53% | 1018.3 hPa | - | - | - | - |
| 1787664184 | 23.33° C | 53% | 1018.3 hPa | - | - | - | - |
| 1787663284 | 23.33° C | 53% | 1018.4 hPa | - | - | - | - |
| 1787662383 | 23.33° C | 53% | 1018.3 hPa | - | - | - | - |
| 1787661483 | 22.78° C | 54% | 1018.3 hPa | - | - | - | - |
| 1787660583 | 22.22° C | 54% | 1018.4 hPa | - | - | - | - |
| 1787659683 | 22.78° C | 55% | 1018.4 hPa | - | - | - | - |
| 1787658783 | 23.89° C | 55% | 1018.3 hPa | - | - | - | - |
| 1787657881 | 23.33° C | 56% | 1018.3 hPa | - | - | - | - |
| 1787656981 | 24.44° C | 56% | 1018.6 hPa | - | - | - | - |
| 1787656081 | 22.22° C | 57% | 1018.6 hPa | - | - | - | - |
| 1787655181 | 22.22° C | 57% | 1018.4 hPa | - | - | - | - |
| 1787654281 | 22.22° C | 58% | 1018.4 hPa | - | - | - | - |
| 1787653381 | 22.22° C | 59% | 1018.5 hPa | - | - | - | - |
| 1787652480 | 23.33° C | 59% | 1018.6 hPa | - | - | - | - |
| 1787651580 | 22.78° C | 60% | 1018.8 hPa | - | - | - | - |
| 1787650680 | 23.33° C | 62% | 1018.9 hPa | - | - | - | - |
| 1787649780 | 21.67° C | 63% | 1018.9 hPa | - | - | - | - |
| 1787648880 | 20.56° C | 64% | 1018.8 hPa | - | - | - | - |
| 1787647980 | 20.56° C | 65% | 1018.9 hPa | - | - | - | - |
| 1787647080 | 19.44° C | 66% | 1019 hPa | - | - | - | - |
| 1787646180 | 19.44° C | 67% | 1018.9 hPa | - | - | - | - |
| 1787645279 | 18.33° C | 68% | 1019.1 hPa | - | - | - | - |
| 1787644379 | 18.33° C | 69% | 1019 hPa | - | - | - | - |
| 1787643479 | 18.89° C | 69% | 1019.1 hPa | - | - | - | - |
* Rain since midnight (hover to see other rain measurements)
** Current wind speed in m/s (hover to see current wind gust speed)